Retour au catalogue

STARLINK-1821

ActifCommunicationsVLEO
NORAD 46718·PAYLOAD·🇺🇸 United States

Lancé Oct 18, 2020 depuis Cape Canaveral Space Force Station

Loading…

Prochains Passages (prochaines 24 heures)

TLE

FraisSource: CelesTrak SupGP

Époque: Sep 14, 2026, 21:20 UTC

1 46718C 20073BA  26257.88937500  .00163350  00000+0  13620-2 0  2578
2 46718  53.0351  35.6167 0001319 273.1925 326.7366 15.69331187    14

Suivez STARLINK-1821 en temps réel avec AllMySat

Download on the App Store